Location: Dampvalley
(47.9094°N, 6.1967°E)
Time: 16:51:56
(UTC+00:00)

PSLV R/B - Pass Details

Date: 05 March 2021
Orbit: 566 x 598 km, 98.2° (Epoch: 15 April)

Event Time Altitude Azimuth Distance (km) Brightness Sun altitude
Rises 05:31:23 0° 175° (S) 2,828 7.5 -7.0°
Reaches altitude 10° 05:33:35 10° 179° (S) 1,928 6.6 -6.6°
Maximum altitude 05:37:42 58° 258° (WSW) 698 4.0 -5.9°
Drops below altitude 10° 05:41:50 10° 339° (NNW) 1,930 6.4 -5.2°
Sets 05:44:02 0° 343° (NNW) 2,831 7.2 -4.9°
